Wind_Speed
12 11 12 12 11 11 9 8 8 7 7 6 6 6 8 8 8 7 5 5 2 4 3 5 6 5 4 5 5 4 5 6 7 8 9 8 7 9 10 12 14 16 17
12 12 12 11 10 9 8 6 6 6 5 5 6 5 6 6 6 5 4 5 4 5 7 6 5 6 4 3 3 3 5 7 8 10 10 10 8 9 11 12 13 16 16
14 13 12 11 10 8 9 8 6 5 3 4 4 4 3 3 3 3 2 1 3 1 4 6 4 3 3 3 4 6 7 8 10 11 12 11 9 14 14 11 14 15 16
14 13 12 11 11 11 9 7 5 3 2 2 2 1 0 0 1 1 0 1 2 1 1 2 3 3 3 4 6 8 9 11 13 14 14 14 13 14 10 12 15 17 16
14 12 12 12 12 10 9 7 5 3 2 2 2 3 4 4 3 3 3 3 2 1 2 4 7 7 7 9 8 9 10 11 13 14 15 16 17 17 16 16 18 18 18
14 13 11 12 11 10 9 7 6 3 2 2 4 4 5 5 5 5 5 5 4 3 4 5 6 6 9 6 5 6 8 10 11 13 15 17 18 19 21 21 20 20 20
16 15 12 13 11 10 9 7 6 5 3 3 4 6 7 7 8 7 7 7 5 5 5 5 6 7 7 8 5 6 7 10 12 15 17 18 20 22 23 24 24 23 23
17 16 15 14 13 11 9 9 7 6 5 6 6 8 5 7 9 9 9 8 7 7 6 6 7 6 8 9 9 12 10 10 12 15 17 19 20 21 23 24 25 24 24
18 16 18 17 16 12 11 11 12 11 7 6 10 8 4 5 2 9 11 9 8 8 8 9 8 8 9 10 11 10 10 13 14 15 17 19 21 22 23 25 26 27 27
19 19 19 18 17 15 14 13 13 13 11 9 8 11 9 7 4 4 8 9 9 10 10 10 11 10 10 11 12 14 13 14 15 15 20 23 24 26 27 27 29 30 30
23 21 20 18 16 14 13 13 15 11 10 8 9 7 8 7 7 8 8 8 8 10 9 10 11 12 13 13 14 13 16 17 21 22 24 25 25 27 28 29 30 31 32
25 22 20 19 17 15 15 16 15 10 9 10 7 9 10 8 9 9 9 11 10 10 10 11 12 13 14 14 16 17 18 21 27 26 22 23 24 25 26 27 28 29 30
25 22 19 19 21 20 20 18 12 11 13 11 9 9 9 8 9 10 10 11 11 11 11 11 13 14 14 16 16 17 19 26 23 23 22 23 24 24 25 26 26 27 28
29 25 27 25 20 21 20 15 12 13 12 10 10 11 10 10 9 10 10 10 8 13 14 14 12 14 16 17 18 22 22 23 22 23 25 24 24 25 26 26 27 27 28
25 31 29 26 21 21 18 14 13 13 12 11 12 12 11 10 10 10 11 12 12 9 9 14 14 13 15 17 19 22 23 23 24 28 23 23 24 25 26 27 27 28 28
22 22 24 23 21 22 19 15 14 13 12 10 13 13 12 10 11 12 14 14 14 15 10 16 16 16 15 19 20 21 22 24 25 23 23 23 25 26 26 27 28 29 29
23 25 32 33 27 27 15 17 13 12 13 10 13 15 14 12 13 13 14 15 16 17 17 19 18 18 15 19 20 21 22 23 24 22 22 25 25 26 26 25 24 24 25
25 32 31 26 26 19 17 15 13 8 6 14 18 18 17 15 16 16 16 17 18 18 19 21 21 20 20 18 21 21 21 22 23 23 23 26 25 25 23 23 25 26 27
28 27 27 26 22 21 18 16 11 7 17 17 18 20 20 20 21 21 20 19 19 18 19 20 22 20 20 19 20 20 21 21 21 22 23 23 20 21 23 25 26 25 25
18 23 27 24 21 18 16 13 8 12 16 17 19 21 22 24 25 24 23 22 21 20 20 20 21 21 19 18 18 20 20 19 21 22 22 19 22 22 24 23 22 22 22
16 22 24 23 17 19 12 4 7 15 16 18 21 24 27 29 30 30 28 25 22 21 19 20 20 20 19 17 17 18 19 20 21 20 21 19 24 24 22 19 19 17 18
16 21 20 23 17 11 9 13 14 14 18 21 24 24 25 28 31 36 37 34 26 21 20 21 21 19 19 18 17 17 17 18 17 16 20 23 22 23 22 20 17 23 24
15 16 15 14 16 13 17 19 19 19 19 22 23 25 26 26 26 28 27 33 31 28 27 23 22 21 20 18 17 17 17 18 20 22 22 23 22 22 21 20 18 23 20
15 15 15 15 11 16 19 21 22 23 19 24 26 27 28 29 28 26 26 24 25 23 23 24 24 22 19 18 17 17 17 19 21 20 19 21 21 20 21 22 20 18 17
8 8 7 10 15 18 19 24 21 17 22 25 24 25 26 27 26 27 27 27 26 23 21 24 25 22 23 22 22 17 17 17 19 19 17 16 17 21 21 23 12 11 21
1 3 7 10 16 17 15 18 20 20 22 24 25 26 26 27 27 27 28 29 27 24 22 20 18 23 26 22 22 20 19 19 19 18 15 15 20 20 15 19 13 20 22
Wind_Direction
160 156 157 156 156 152 146 140 123 112 111 95 73 51 41 43 40 28 26 30 48 86 111 111 110 114 93 75 59 64 32 18 14 8 357 351 359 2 8 7 5 1 357
164 162 162 159 162 157 149 132 139 139 109 94 71 58 58 51 35 36 47 39 70 137 107 87 89 98 91 53 49 18 350 342 338 334 337 332 336 345 343 343 349 349 346
175 168 170 172 168 158 139 144 129 113 97 77 83 76 54 41 33 54 41 52 70 103 185 159 136 82 48 5 337 333 331 326 327 326 324 318 318 318 317 327 333 336 334
180 176 178 177 168 162 152 151 138 123 121 112 124 115 126 264 211 135 110 158 158 221 332 230 270 280 308 359 348 334 325 322 320 318 316 310 306 309 304 310 317 321 320
187 187 185 182 169 165 160 157 138 176 144 157 201 200 205 213 212 218 196 178 188 224 276 292 291 291 299 304 323 329 325 323 321 319 316 313 312 310 305 304 309 307 308
189 190 188 180 174 170 168 164 140 151 171 204 240 239 231 229 226 220 208 214 222 237 282 287 297 301 305 307 328 322 322 321 320 320 316 312 308 306 304 302 299 298 300
193 191 185 184 183 185 181 153 150 167 173 201 244 247 252 242 225 228 224 226 233 260 275 277 293 295 295 313 296 322 324 322 321 320 316 312 306 301 300 297 294 293 293
199 193 191 187 191 188 168 166 169 179 198 208 272 296 284 223 222 232 232 237 239 258 269 274 290 284 286 290 288 304 306 314 315 316 314 312 309 304 300 297 293 291 291
201 197 194 191 187 187 182 184 188 188 202 222 240 282 292 280 341 197 228 238 248 258 268 275 281 284 287 289 294 298 297 297 311 313 312 309 305 301 297 294 292 291 291
200 201 199 196 188 188 191 191 189 193 202 216 233 256 264 280 276 265 203 227 238 263 266 278 288 281 280 284 291 292 289 307 309 313 309 305 301 298 295 292 290 289 288
199 199 199 195 192 191 190 187 191 202 231 224 248 240 243 250 254 273 281 264 240 256 265 278 284 281 283 285 291 291 292 302 307 308 306 303 300 296 293 290 288 287 286
201 201 198 197 194 191 187 189 193 222 234 240 235 232 240 251 266 252 265 270 277 276 278 286 283 283 288 285 288 288 293 306 308 307 307 305 302 299 296 293 290 288 286
206 204 200 197 194 190 189 192 210 223 230 233 229 236 241 246 258 264 273 279 283 279 275 277 284 283 285 288 289 287 295 307 303 304 304 304 301 299 297 293 291 289 288
207 202 205 210 205 199 192 210 235 218 230 230 227 238 243 240 244 256 268 278 280 277 273 272 266 274 282 283 284 291 300 298 298 296 300 300 298 297 295 292 292 290 290
212 214 213 206 198 195 208 233 212 226 222 222 240 239 240 251 255 260 259 261 268 280 281 290 295 282 278 277 286 292 294 298 294 296 297 297 296 295 294 293 291 291 290
212 206 200 193 196 211 223 204 215 218 225 244 247 242 243 255 253 250 254 252 256 266 280 286 291 294 286 284 291 293 294 296 297 294 292 294 295 296 295 291 289 289 289
212 203 203 202 212 212 210 201 210 214 232 254 254 246 245 247 246 247 248 254 260 266 274 283 289 293 279 282 291 292 294 296 296 296 294 296 297 297 293 292 292 293 292
214 217 213 209 202 211 197 199 204 225 245 259 253 244 246 246 245 250 252 254 262 266 275 282 287 291 288 289 291 291 294 296 296 297 296 297 299 295 292 290 293 292 291
226 221 213 199 194 196 190 194 188 232 279 256 253 247 247 248 250 251 252 257 261 266 271 275 281 286 289 290 286 289 293 296 298 300 300 301 297 295 292 290 289 289 290
208 201 197 194 198 191 189 186 207 254 274 258 259 255 253 253 255 253 255 257 261 267 272 269 274 282 286 287 284 286 293 299 302 306 304 303 299 297 288 285 286 289 291
199 192 195 189 182 180 173 155 242 278 267 267 264 261 259 257 256 252 255 255 254 258 266 269 272 279 283 281 285 294 292 299 303 304 305 307 308 303 296 288 280 281 293
181 190 178 179 168 185 182 243 266 273 273 273 272 273 272 268 262 256 250 244 243 250 254 264 273 276 278 277 282 284 289 298 301 311 314 308 306 303 298 288 290 299 303
177 171 163 165 188 206 245 245 276 276 277 275 278 280 279 273 267 258 255 242 238 239 245 252 264 268 273 273 279 279 281 290 298 304 307 302 307 304 300 296 296 301 304
174 173 178 191 215 245 254 267 282 295 282 281 282 281 278 276 271 260 250 236 232 235 240 238 245 260 260 264 268 271 280 285 290 296 302 300 309 305 306 302 296 293 296
157 177 206 244 250 257 265 281 291 285 287 284 285 283 279 276 273 264 243 240 236 237 239 236 237 242 243 247 259 265 270 278 288 297 306 300 309 314 310 303 287 310 311
172 207 234 258 277 286 289 291 293 291 286 286 288 286 282 273 269 258 239 233 235 236 237 237 245 248 249 253 255 243 257 268 283 292 297 295 305 310 314 296 306 310 312
Height
867 870 872 874 877 878 878 879 879 880 881 881 882 884 883 883 883 883 883 882 882 884 884 884 883 884 884 883 883 883 882 881 879 878 877 875 874 873 871 870 869 867 865
867 869 872 874 877 877 877 879 880 881 880 879 879 881 882 882 884 884 884 883 883 882 884 884 884 884 884 883 883 882 881 880 879 878 877 876 874 873 871 869 868 866 865
867 869 872 874 875 875 875 879 879 879 881 880 880 880 882 883 884 884 883 883 882 883 883 883 883 882 883 883 882 881 880 879 878 877 875 874 873 872 870 869 867 865 864
866 868 870 873 873 874 873 877 877 880 879 880 881 881 881 883 884 882 882 882 882 882 882 882 882 881 881 880 880 879 879 878 877 875 874 873 871 869 868 867 865 864 862
864 867 868 871 871 872 872 874 875 880 878 880 881 879 879 881 881 881 881 881 882 882 882 881 881 880 880 879 878 878 877 876 875 874 872 871 869 868 866 864 863 862 860
863 867 867 869 870 870 871 873 873 878 878 879 880 881 880 880 879 879 879 880 880 881 881 880 880 878 878 878 877 877 876 875 874 872 871 869 867 866 864 862 860 859 856
861 863 863 867 869 869 871 870 873 876 878 879 881 879 878 878 877 877 877 877 878 879 879 879 878 877 876 875 875 875 874 873 872 870 869 867 865 863 861 859 857 855 852
859 858 861 863 868 869 867 869 872 874 877 878 878 876 867 870 873 875 876 876 877 877 877 877 876 875 875 874 872 872 871 870 869 868 866 864 862 860 858 855 852 850 848
855 855 858 860 863 865 865 867 868 871 873 876 876 874 864 860 865 867 873 873 874 874 874 874 873 873 873 872 870 870 866 866 865 864 863 861 858 856 854 851 848 846 843
849 853 855 857 857 859 862 864 866 868 869 868 870 871 870 868 864 861 866 868 870 871 870 871 870 870 870 869 867 866 864 863 861 860 859 857 854 852 849 846 844 841 838
845 849 852 853 855 857 859 862 865 867 867 864 864 866 868 867 868 866 860 860 862 864 866 867 867 867 866 865 865 864 860 859 857 855 853 851 849 846 844 841 838 835 832
842 845 847 849 851 854 856 859 862 863 864 864 861 862 863 863 861 862 861 859 859 861 862 863 864 863 862 862 861 859 857 855 852 849 848 846 843 841 838 835 833 830 827
839 841 845 846 847 848 851 855 858 858 862 861 860 861 861 860 861 861 861 858 857 857 858 860 860 860 859 859 858 854 853 851 847 845 842 840 838 835 832 829 826 823 821
832 835 839 841 847 847 849 852 853 856 860 859 859 859 858 858 858 859 858 857 855 853 852 851 853 855 855 855 853 852 850 847 843 840 837 834 831 828 825 822 820 817 814
828 830 833 837 844 845 846 848 851 855 856 855 857 857 857 857 856 857 857 856 855 852 848 847 848 849 851 851 850 848 845 842 838 834 831 828 825 822 819 816 814 811 808
823 826 830 836 840 841 844 845 849 852 854 855 855 854 854 853 853 853 853 853 854 852 847 846 845 845 847 847 845 842 840 836 832 829 826 823 820 816 813 810 807 804 801
818 820 821 824 832 839 841 844 846 848 850 851 852 852 850 850 850 849 850 850 849 848 844 841 841 841 841 842 840 837 835 831 827 824 821 817 814 810 806 803 800 797 795
813 814 818 823 830 835 838 841 843 847 847 847 846 847 847 847 847 846 845 845 844 843 841 837 837 837 836 835 834 832 829 826 822 818 815 811 808 803 800 797 794 791 788
806 810 814 820 825 830 833 836 837 840 842 843 842 841 841 841 840 840 839 839 838 836 835 835 833 832 831 830 829 827 824 820 816 812 809 805 802 799 796 792 789 785 782
805 807 812 818 822 827 831 833 834 838 838 838 837 836 836 835 834 834 832 831 831 831 830 829 827 826 825 824 824 822 817 815 810 807 803 799 796 792 788 785 783 779 777
804 809 812 818 824 826 829 830 832 834 834 833 832 830 828 827 826 826 825 823 824 824 824 823 821 820 819 818 818 817 815 810 807 803 798 795 791 787 782 779 776 774 773
803 808 812 815 819 828 825 827 831 830 829 827 825 823 821 819 817 816 815 815 816 816 817 818 816 814 814 814 814 814 811 807 801 799 795 792 788 782 778 774 772 770 768
804 808 812 816 820 821 824 826 826 825 824 822 819 817 814 811 809 808 806 806 807 808 810 811 810 810 809 810 810 810 807 804 800 796 793 786 783 778 773 769 768 766 763
805 808 811 815 817 820 822 822 821 819 818 815 813 810 807 803 801 800 801 799 800 801 802 803 804 804 803 805 806 805 803 800 796 791 789 782 778 774 770 767 764 761 759
808 811 813 815 815 816 817 816 815 814 812 808 805 802 799 796 794 793 793 792 792 793 794 795 796 797 797 798 800 801 799 796 790 786 784 780 777 772 768 763 758 757 755
810 810 811 812 812 812 812 812 812 810 805 801 799 795 791 789 787 785 784 785 784 784 786 788 789 789 790 791 792 794 793 790 787 782 780 779 774 771 765 761 757 755 750